Tracking 30995 objects as of 5-Jul-2025
HD Live streaming from Space Station
objects crossing your sky now

COSMOS 1275 DEB

Track COSMOS 1275 DEB now!
10-day predictions


NORAD ID: 12729
Int'l Code: 1981-053BW
Perigee: 948.0 km
Apogee: 1,137.5 km
Inclination: 83.0 °
Period: 105.9 minutes
Semi major axis: 7413 km
RCS: 0.0622 m2 (small)
Launch date: June 4, 1981
Source: Commonwealth of Independent States (former USSR) (CIS)
Launch site: PLESETSK MISSILE AND SPACE COMPLEX (PKMTR)

Note: This is SATELLITE DEBRIS
Your satellite tracking list
Your tracking list is empty




NASA's NSSDC Master Catalog

Two Line Element Set (TLE):
1 12729U 81053BW  25185.47451167  .00000230  00000-0  27401-3 0  9996
2 12729  83.0465 346.5055 0127854   2.2100  51.0483 13.60020603 32387
Source of the keplerian elements: AFSPC